Location: Unspecified
(52.4292°N, 19.3359°E)
Time: 10:24:56
(UTC+02:00)

Tiros 1 - Pass Details

Date: 20 May 2024
Orbit: 624 x 657 km, 48.4° (Epoch: 22 June)

Event Time Altitude Azimuth Distance (km) Brightness Sun altitude
Rises 16:27:34 0° 265° (W) 2,981 11.5 35.8°
Reaches altitude 10° 16:29:58 10° 261° (W) 2,069 11.1 35.4°
Maximum altitude 16:34:36 52° 186° (S) 816 8.3 34.7°
Drops below altitude 10° 16:39:12 10° 110° (ESE) 2,058 9.4 34.0°
Sets 16:41:35 0° 106° (ESE) 2,963 10.1 33.7°
